BRISAT

Last updated on Sun Apr 12 2026 00:02:54 GMT+0000 (Coordinated Universal Time)

1 41591U 16039A 26101.35322594 -.00000195 00000+0 00000+0 0 9996 2 41591 0.0171 241.4800 0002227 140.0902 95.6703 1.00272016 35949
UTC large
Height (km)
Speed (km/s)
/
Latitude / Longitude
Inclination (degrees)
Orbital Period (minutes)
Azimuth
Elevation
Range (km)
Doppler Factor

Next 0 passes for location: London (51.5072 / 0.1276)

Sorry there are no passes over London.
BRISAT